Regional Weather Roundup
Issued by NWS Wilmington, NC

Home | Current Version | Previous Version | Text Only | Print | Product List | Glossary On
Versions: 1 2 3 4 5 6 7 8 9 10 11 12 13 14 15 16 17 18 19 20 21 22 23 24 25 26 27 28
000
ASUS42 KILM 200414
RWRILM
RWRILM
REGIONAL HOURLY WEATHER ROUNDUP
NATIONAL WEATHER SERVICE WILMINGTON NC
1200 AM EDT SUN AUG 20 2017

NOTE: "FAIR" INDICATES FEW OR NO CLOUDS BELOW 12,000 FEET WITH NO
SIGNIFICANT WEATHER AND/OR OBSTRUCTIONS TO VISIBILITY.

...............WFO WILMINGTON COUNTY WARNING AREA...............

......COASTAL NC AND SC COUNTIES......

CITY           SKY/WX    TMP DP  RH WIND       PRES   REMARKS
WILMINGTON     PTCLDY    76  75  97 E3        29.99R
N MYRTLE BEACH MOCLDY    82  80  94 SW13      29.99R HX  94
MYRTLE BEACH   NOT AVBL

......INLAND NC AND SC COUNTIES.......

CITY           SKY/WX    TMP DP  RH WIND       PRES   REMARKS
LUMBERTON      PTCLDY    74  74 100 CALM      29.98R
ELIZABETHTOWN  NOT AVBL
WHITEVILLE     PTCLDY    75  74  97 CALM      29.98S
FLORENCE       CLEAR     79  77  94 CALM      29.99R
DARLINGTON     CLEAR     77  76  96 NE3       29.99R FOG
KINGSTREE      FAIR      79  77  94 CALM      29.98R
HARTSVILLE     FAIR      77  73  88 CALM      29.99R
BENNETTSVILLE  FAIR      77  75  94 CALM      29.99R
CONWAY         FAIR      77  75  94 CALM      29.99R FOG
GEORGETOWN     FAIR      79  79 100 S3        30.00R
MARION         MOCLDY    77  73  88 CALM      29.99R

....................REST OF NORTH CAROLINA......................

.........EASTERN NC.........

CITY           SKY/WX    TMP DP  RH WIND       PRES   REMARKS
CAPE HATTERAS  PTCLDY    79  78  97 SW8       29.98F
JACKSONVILLE   PTCLDY    73  73 100 CALM      30.00R FOG
MOREHEAD CITY  CLEAR     79  78  97 CALM      30.00R
KENANSVILLE    CLEAR     72  72 100 CALM      30.00R
NEW BERN       CLEAR     73  73 100 CALM      30.01R FOG
ELIZABETH CITY CLEAR     75  75 100 SW3       29.98R

.........CENTRAL NC.........

CITY           SKY/WX    TMP DP  RH WIND       PRES   REMARKS
RALEIGH DURHAM PTCLDY    77  70  79 CALM      30.01R
ROCKY MOUNT    CLEAR     74  74 100 CALM      30.00R
ROANOKE RAPIDS NOT AVBL
FAYETTEVILLE   CLEAR     77  76  96 CALM      29.99R
HOFFMAN        CLEAR     75  73  93 CALM      30.00R

.........WESTERN NC.........

CITY           SKY/WX    TMP DP  RH WIND       PRES   REMARKS
CHARLOTTE      PTCLDY    74  72  93 CALM      30.02R
GREENSBORO     PTCLDY    76  69  79 CALM      30.02R
HICKORY        NOT AVBL
BOONE          NOT AVBL
ASHEVILLE      NOT AVBL

.....................REST OF SOUTH CAROLINA.....................

.........EASTERN SC.........

CITY           SKY/WX    TMP DP  RH WIND       PRES   REMARKS
CHARLESTON     CLEAR     80  79  96 SW6       29.99R
BEAUFORT MCAS  CLEAR     83  81  94 S3        29.99R HX  97
HILTON HEAD    PTCLDY    84  81  89 S3        29.99S HX  98

.........CENTRAL SC.........

CITY           SKY/WX    TMP DP  RH WIND       PRES   REMARKS
COLUMBIA       CLEAR     82  68  62 W5        29.97R
ORANGEBURG     PTCLDY    76  72  87 CALM      29.99R
SUMTER SHAW    PTCLDY    78  69  74 CALM      29.96R

.........WESTERN SC.........

CITY           SKY/WX    TMP DP  RH WIND       PRES   REMARKS
GREENVILLE     NOT AVBL
ROCK HILL      CLEAR     72  71  97 CALM      30.02S
ANDERSON       CLEAR     74  69  85 CALM      30.03R
CLEMSON        NOT AVBL
GREENWOOD      CLEAR     73  68  84 CALM      30.03R


...................COASTAL AND OFFSHORE REPORTS..................

................LOCAL PIERS AND NC RESERVE................


STATION/POSITION TIME  SKY/WX   TEMP    WIND        PRES    VSBY
                                AIR SEA DIR/SP/G
                 (UTC)          (F)     (DEG/KT/KT) (MB)    (MI)
JOHNY MRCER PIER 0348            81 83  190/  4/  5 1014.7R
NC RESRV MASNBRO NOT AVBL
OCEAN CREST PIER NOT AVBL
SPRINGMAID  PIER 0348                               1014.7R


................COASTAL AND OFFSHORE BUOYS................


STATION/POSITION TIME  SKY/WX   TEMP    WIND        PRES    VSBY
                                AIR SEA DIR/SP/G
                 (UTC)          (F)     (DEG/KT/KT) (MB)    (MI)
DIMNDSHOAL 41025 0350            83 83  210/ 12/ 14 1015.3R
WVE H/P(F/S)=  3/ 9 SWL H/P/D(F/S/D)=  2/110/ 9

CAPE LOOKOUT     0400            81     220/  5/  6 1015.6R
ONSLOW BAY 41036 NOT AVBL
ONSLOW BAY 41064 0308            81 84  250/  8/ 12 1015.5R
ONSLOW BAY 41159 0343               83                N/A
WVE H/P(F/S)=  3/ 5

MASNBO INL 41110 0329               83                N/A
WVE H/P(F/S)=  2/ 5

WILM HARBR 41108 0330               85                N/A
WVE H/P(F/S)=  3/ 6

27SE WRITB 41037 0308            83 84  200/  8/ 10 1015.4R
FRYING PAN 41013 0400            84 84  210/ 12/ 14 1015.6
SUNST NRSH 41024 0308            83 85  230/ 10/ 14 1014.9R
CAPRS NRSH 41029 0308            82 85  220/ 12/ 17 1015.0R
EDISTO     41004 0400            84 84  200/ 12/ 16 1015.3


..........OFFSHORE BUOYS BEYOND 100 NM OFFSHORE...........
.....IN A TRIANGLE---HAT TO BERMUDA TO BAHAMAS TO HAT.....


STATION/POSITION TIME  SKY/WX   TEMP    WIND        PRES    VSBY
                                AIR SEA DIR/SP/G
                 (UTC)          (F)     (DEG/KT/KT) (MB)    (MI)
150E HAT   41001 0400               82  200/ 10/ 14 1016.5
W BERMUDA  41048 0400            82 83  230/  6/ 10 1019.6
ATLANTIC S 41049 0350            83 85  100/ 12/ 14 1020.6F
WVE H/P(F/S)=  4/ 8 SWL H/P/D(F/S/D)=  3/120/ 8

E BAHAMAS  41046 0400            83 84   80/ 16/ 19 1016.8
NE BAHAMAS 41047 0350            84 85  130/ 12/ 14 1018.6F
WVE H/P(F/S)=  4/ 8 SWL H/P/D(F/S/D)=  3/120/ 8

120E CANVRL41010 0400            83 85  140/ 12/ 14 1016.7

END




USA.gov is the U.S. government's official web portal to all federal, state and local government web resources and services.